Regional Weather Roundup
Issued by NWS

Home | Current Version | Previous Version | Graphics & Text | Print | Product List | Glossary On
Versions: 1 2 3 4 5 6 7 8 9 10 11 12 13 14 15 16 17 18 19 20 21 22 23 24 25 26 27 28 29 30 31 32 33 34 35 36 37 38 39 40 41 42 43 44 45 46 47 48 49 50
000
ASUS43 KIND 180909
RWRIN

WEATHER ROUNDUP FOR INDIANA
NATIONAL WEATHER SERVICE INDIANAPOLIS IN
400 AM EST MON DEC 18 2017

NOTE: "FAIR" INDICATES FEW OR NO CLOUDS BELOW 12,000 FEET WITH NO
SIGNIFICANT WEATHER AND/OR OBSTRUCTIONS TO VISIBILITY.

* - STATION DOES NOT REPORT WEATHER SUCH AS PRECIPITATION OR FOG.

+ - STATION NOT QUALITY CONTROLLED BY THE NATIONAL WEATHER SERVICE.
    USE DATA WITH CAUTION...ESPECIALLY DEWPOINT AND RELATIVE
    HUMIDITY OBSERVATIONS.

INZ001>003-010>013-019-020-181000-
NORTHWEST INDIANA

CITY           SKY/WX    TMP DP  RH WIND       PRES   REMARKS
GARY /AIRPORT/ DRIZZLE   43  40  91 S6        29.96F
KNOX *+        CLOUDY    41  37  87 SW12      29.98S
LA PORTE +     CLOUDY    38  37  96 SW8       29.97S FOG     WCI  33
MICHIGAN CITY+ CLOUDY    39  37  93 S7        29.96F WCI  34
MONTICELLO +   CLOUDY    40  39  95 SW9       30.00F FOG     WCI  35
RENSSELAER +   CLOUDY    41  37  87 SW14      29.99S FOG
VALPARAISO     CLOUDY    42  39  89 SW10      29.97S FOG

$$

LMZ046-743>745-181000-
SOUTHERN LAKE MICHIGAN

STATION/POSITION TIME  TEMP    WIND        PRES    WAVE
                       AIR SEA DIR/SP/G            HT
                 (UTC) (F)     (DEG/KT/KT) (MB)    (FT)
BURNS HARBOR     0840   42     200/ 12/ 17 1014.9S
MICHIGAN CITY    0840   41     190/ 13/ 16   N/A

$$

INZ004-005-014>016-021>024-181000-
NORTH CENTRAL INDIANA

CITY           SKY/WX    TMP DP  RH WIND       PRES   REMARKS
GOSHEN         CLOUDY    39  37  92 SW12      29.98S WCI  32
LOGANSPORT +   CLOUDY    39  37  93 SW9       30.02F WCI  33
PERU/GRISSOM   CLOUDY    41  41 100 SW9       30.00F
ROCHESTER +    CLOUDY    41  39  93 S5        30.00S
SOUTH BEND     CLOUDY    38  38 100 SW8       29.98R WCI  32
WARSAW +       CLOUDY    39  37  93 SW7       29.99S WCI  34

$$

INZ006>009-017-018-025>027-181000-
NORTHEAST INDIANA

CITY           SKY/WX    TMP DP  RH WIND       PRES   REMARKS
AUBURN +       CLOUDY    39  36  87 SW7       30.00S WCI  34
FORT WAYNE     CLOUDY    39  36  89 SW12      30.01F WCI  32
HUNTINGTON +   CLOUDY    39  38  95 SW8       30.01F WCI  33
KENDALLVILLE + CLOUDY    38  37  96 SW9       29.98S FOG     WCI  31

$$

INZ028-029-035-036-043>045-051>053-181000-
WEST CENTRAL INDIANA

CITY           SKY/WX    TMP DP  RH WIND       PRES   REMARKS
CRAWFORDSVL +  CLOUDY    39  39 100 S8        30.04F FOG     WCI  33
GREENCASTLE +  FOG       41  39  93 SW3       30.06S VSB 1
LAFAYETTE      CLOUDY    41  40  96 SW6       30.02F FOG
TERRE HAUTE    CLOUDY    43  41  93 SW8       30.07S FOG

$$

INZ030>032-037>040-046>048-054>057-064-065-181000-
CENTRAL INDIANA

CITY           SKY/WX    TMP DP  RH WIND       PRES   REMARKS
FRANKFORT +    CLOUDY    43  41  93 SW13      30.04F FOG
GREENWOOD *+   CLOUDY    44  41  91 S5        30.05F
INDIANAPOLIS   DRIZZLE   41  40  96 SW7       30.05F FOG
-EAGLE CREEK   CLOUDY    41  39  93 SW6       30.04S FOG
KOKOMO +       CLOUDY    40  39  97 SW10      30.02F FOG     WCI  33
MARION +       CLOUDY    38  36  93 SW7       30.03F WCI  32
MT COMFORT *+  CLOUDY    39  39 100 S5        30.04F WCI  36
SHELBYVILLE    CLOUDY    41  37  86 S7        30.06F
ZIONSVILLE +   CLOUDY    39  38  97 SW9       30.04F FOG     WCI  33

$$

INZ033-034-041-042-049-050-058-059-181000-
EAST CENTRAL INDIANA

CITY           SKY/WX    TMP DP  RH WIND       PRES   REMARKS
MUNCIE         CLOUDY    42  37  82 SW9       30.03F
RICHMOND +     CLOUDY    36  36 100 S7        30.06S FOG     WCI  30

$$

INZ060-061-067>069-081>083-085>088-181000-
SOUTHWEST INDIANA

CITY           SKY/WX    TMP DP  RH WIND       PRES   REMARKS
EVANSVILLE     LGT RAIN  44  44 100 S12       30.11S FOG
HUNTINGBURG +  CLOUDY    43  43 100 SW9       30.11S FOG
WASHINGTON +   CLOUDY    43  41  94 SW8       30.09F FOG

$$

INZ062-063-066-070>080-084-089>092-181000-
SOUTH CENTRAL AND SOUTHEAST INDIANA

CITY           SKY/WX    TMP DP  RH WIND       PRES   REMARKS
BEDFORD +      CLOUDY    43  39  87 SW8       30.08  FOG
BLOOMINGTON    CLOUDY    43  40  89 SW8       30.07S FOG
MADISON *+     CLOUDY    41  39  93 S5        30.10F
SEYMOUR +      CLOUDY    43  41  93 S3        30.09F FOG

$$





USA.gov is the U.S. government's official web portal to all federal, state and local government web resources and services.